Weather History for KLCI - October, 2012

Change the Weather History Date:

Sunday, October 28, 2012

  Actual Average (KCON) Record (KCON)
Temperature  
Mean Temperature 50 °F 44 °F  
Max Temperature 53 °F 56 °F 78 °F (1947)
Min Temperature 48 °F 33 °F 11 °F (1974)
Degree Days  
Heating Degree Days 14 21  
Month to date heating degree days 460  
Since 1 July heating degree days 695  
Cooling Degree Days 0 0  
Month to date cooling degree days 0  
Year to date cooling degree days 450  
Moisture  
Dew Point 41 °F    
Average Humidity 67    
Maximum Humidity 82    
Minimum Humidity 47    
Precipitation  
Precipitation 0.00 in 0.13 in 2.21 in (2006)
Month to date precipitation 3.66  
Year to date precipitation 33.31  
Snow  
Snow 0.00 in 0.00 in 0.50 in (1952)
Month to date snowfall 0.0  
Since 1 July snowfall 0.0  
Since 1 September snowfall 0.0  
Snow Depth -    
Sea Level Pressure  
Sea Level Pressure 29.98 in    
Wind  
Wind Speed 9 mph (ENE)    
Max Wind Speed 18 mph    
Max Gust Speed 25 mph    
Visibility 10 miles    
Events      
T = Trace of Precipitation, MM = Missing Value Source: NWS Daily Summary

Daily Weather History Graph

Daily Weather History Graph

Search for Another Location

Airport or City:

Trip Planner

Search our weather history database for the weather conditions in past years. The results will help you decide how hot, cold, wet, or windy it might be!

Date:

Astronomy

Oct. 28, 2012 Rise Set
Actual Time 7:16 AM EDT 5:41 PM EDT
Civil Twilight 6:47 AM EDT 6:11 PM EDT
Nautical Twilight 6:13 AM EDT 6:44 PM EDT
Astronomical Twilight 5:40 AM EDT 7:17 PM EDT
Moon 4:57 PM EDT (10/28) 6:05 AM EDT (10/28)
Length of Visible Light 11h 23m
Length of Day
10h 24m
Waxing Gibbous, 99% of the Moon is Illuminated
Oct 28
Waxing Gibbous
Oct 29
Full
Nov 6
Last Quarter
Nov 13
New
Nov 20
First Quarter

Hourly Weather History & Observations

Time (EDT) Temp. Dew Point Humidity Pressure Visibility Wind Dir Wind Speed Gust Speed Precip Events Conditions
12:15 AM 53.6 °F 42.8 °F 67% 30.04 in 10.0 mi ENE 6.9 mph - N/A   Overcast
12:35 AM 53.6 °F 39.2 °F 58% 30.03 in 10.0 mi NE 5.8 mph - N/A   Overcast
12:55 AM 53.6 °F 39.2 °F 58% 30.03 in 10.0 mi ENE 5.8 mph - N/A   Overcast
1:15 AM 53.6 °F 37.4 °F 54% 30.02 in 10.0 mi East 5.8 mph - N/A   Overcast
1:55 AM 51.8 °F 37.4 °F 58% 30.03 in 10.0 mi Calm Calm - N/A   Overcast
2:15 AM 51.8 °F 37.4 °F 58% 30.03 in 10.0 mi Calm Calm - N/A   Overcast
2:35 AM 51.8 °F 37.4 °F 58% 30.03 in 10.0 mi Calm Calm - N/A   Overcast
2:55 AM 53.6 °F 35.6 °F 51% 30.01 in 10.0 mi ENE 5.8 mph - N/A   Overcast
3:15 AM 53.6 °F 35.6 °F 51% 30.01 in 10.0 mi ENE 6.9 mph - N/A   Overcast
3:35 AM 53.6 °F 35.6 °F 51% 30.01 in 10.0 mi ENE 6.9 mph - N/A   Partly Cloudy
3:55 AM 53.6 °F 33.8 °F 47% 30.00 in 10.0 mi NE 9.2 mph - N/A   Clear
4:15 AM 53.6 °F 35.6 °F 51% 30.01 in 10.0 mi ENE 8.1 mph - N/A   Clear
4:35 AM 53.6 °F 35.6 °F 51% 30.00 in 10.0 mi ENE 9.2 mph - N/A   Clear
4:55 AM 51.8 °F 35.6 °F 54% 30.01 in 10.0 mi ENE 8.1 mph - N/A   Clear
5:15 AM 51.8 °F 35.6 °F 54% 30.01 in 10.0 mi ENE 8.1 mph - N/A   Clear
5:35 AM 51.8 °F 35.6 °F 54% 30.00 in 10.0 mi ENE 10.4 mph - N/A   Clear
5:55 AM 51.8 °F 35.6 °F 54% 30.00 in 10.0 mi ENE 11.5 mph - N/A   Clear
6:15 AM 51.8 °F 35.6 °F 54% 30.00 in 10.0 mi East 13.8 mph - N/A   Clear
6:35 AM 51.8 °F 37.4 °F 58% 30.01 in 10.0 mi ENE 15.0 mph 19.6 mph N/A   Clear
6:55 AM 51.8 °F 39.2 °F 62% 30.01 in 10.0 mi East 13.8 mph - N/A   Clear
7:15 AM 51.8 °F 41.0 °F 67% 30.02 in 10.0 mi ENE 12.7 mph 19.6 mph N/A   Mostly Cloudy
7:35 AM 51.8 °F 42.8 °F 71% 30.03 in 10.0 mi ENE 12.7 mph 17.3 mph N/A   Mostly Cloudy
7:55 AM 51.8 °F 42.8 °F 71% 30.03 in 10.0 mi ENE 11.5 mph - N/A   Overcast
8:15 AM 51.8 °F 42.8 °F 71% 30.03 in 10.0 mi ENE 8.1 mph - N/A   Overcast
8:35 AM 51.8 °F 42.8 °F 71% 30.03 in 10.0 mi ENE 10.4 mph - N/A   Overcast
8:55 AM 51.8 °F 42.8 °F 71% 30.04 in 10.0 mi ENE 12.7 mph 19.6 mph N/A   Overcast
9:15 AM 51.8 °F 42.8 °F 71% 30.04 in 10.0 mi ENE 11.5 mph 17.3 mph N/A   Overcast
9:35 AM 51.8 °F 42.8 °F 71% 30.03 in 10.0 mi ENE 12.7 mph 17.3 mph N/A   Overcast
9:55 AM 51.8 °F 42.8 °F 71% 30.04 in 10.0 mi ENE 10.4 mph - N/A   Overcast
10:15 AM 51.8 °F 42.8 °F 71% 30.04 in 10.0 mi ENE 10.4 mph 16.1 mph N/A   Overcast
10:35 AM 51.8 °F 42.8 °F 71% 30.04 in 10.0 mi ENE 12.7 mph - N/A   Overcast
10:55 AM 51.8 °F 42.8 °F 71% 30.03 in 10.0 mi NE 11.5 mph 17.3 mph N/A   Overcast
11:15 AM 50.0 °F 42.8 °F 76% 30.03 in 10.0 mi ENE 12.7 mph - N/A   Overcast
11:35 AM 50.0 °F 42.8 °F 76% 30.03 in 10.0 mi ENE 10.4 mph 16.1 mph N/A   Overcast
11:55 AM 51.8 °F 42.8 °F 71% 30.02 in 10.0 mi NE 11.5 mph - N/A   Overcast
12:35 PM 51.8 °F 42.8 °F 71% 30.00 in 10.0 mi ENE 11.5 mph - N/A   Scattered Clouds
1:15 PM 53.6 °F 42.8 °F 67% 29.99 in 10.0 mi NE 8.1 mph - N/A   Overcast
1:35 PM 53.6 °F 42.8 °F 67% 29.98 in 10.0 mi ENE 9.2 mph - N/A   Overcast
1:55 PM 53.6 °F 42.8 °F 67% 29.97 in 10.0 mi ENE 15.0 mph - N/A   Overcast
2:15 PM 53.6 °F 42.8 °F 67% 29.96 in 10.0 mi ENE 11.5 mph 19.6 mph N/A   Overcast
2:35 PM 53.6 °F 42.8 °F 67% 29.96 in 10.0 mi ENE 10.4 mph - N/A   Overcast
2:55 PM 53.6 °F 42.8 °F 67% 29.95 in 10.0 mi NE 13.8 mph 18.4 mph N/A   Overcast
3:15 PM 53.6 °F 42.8 °F 67% 29.94 in 10.0 mi ENE 11.5 mph - N/A   Overcast
3:35 PM 53.6 °F 42.8 °F 67% 29.94 in 10.0 mi NE 10.4 mph 18.4 mph N/A   Scattered Clouds
3:55 PM 53.6 °F 42.8 °F 67% 29.94 in 10.0 mi ENE 10.4 mph - N/A   Mostly Cloudy
4:15 PM 53.6 °F 42.8 °F 67% 29.93 in 10.0 mi ENE 11.5 mph - N/A   Mostly Cloudy
4:35 PM 53.6 °F 42.8 °F 67% 29.93 in 10.0 mi ENE 11.5 mph - N/A   Mostly Cloudy
4:55 PM 51.8 °F 42.8 °F 71% 29.93 in 10.0 mi ENE 12.7 mph - N/A   Overcast
5:15 PM 51.8 °F 42.8 °F 71% 29.92 in 10.0 mi ENE 12.7 mph - N/A   Overcast
5:35 PM 51.8 °F 42.8 °F 71% 29.92 in 10.0 mi ENE 10.4 mph - N/A   Overcast
5:55 PM 51.8 °F 42.8 °F 71% 29.91 in 10.0 mi ENE 9.2 mph 16.1 mph N/A   Mostly Cloudy
6:15 PM 51.8 °F 42.8 °F 71% 29.91 in 10.0 mi ENE 13.8 mph - N/A   Scattered Clouds
6:35 PM 50.0 °F 42.8 °F 76% 29.91 in 10.0 mi ENE 13.8 mph - N/A   Scattered Clouds
6:55 PM 51.8 °F 42.8 °F 71% 29.91 in 10.0 mi ENE 18.4 mph 21.9 mph N/A   Mostly Cloudy
7:15 PM 51.8 °F 42.8 °F 71% 29.92 in 10.0 mi ENE 18.4 mph 25.3 mph N/A   Overcast
7:35 PM 51.8 °F 42.8 °F 71% 29.93 in 10.0 mi NE 13.8 mph - N/A   Overcast
7:55 PM 50.0 °F 42.8 °F 76% 29.91 in 10.0 mi NE 16.1 mph 21.9 mph N/A   Overcast
8:15 PM 50.0 °F 41.0 °F 71% 29.92 in 10.0 mi ENE 18.4 mph 24.2 mph N/A   Overcast
8:35 PM 48.2 °F 41.0 °F 76% 29.93 in 10.0 mi ENE 17.3 mph - N/A   Overcast
8:55 PM 48.2 °F 42.8 °F 82% 29.92 in 10.0 mi ENE 12.7 mph 20.7 mph N/A   Overcast
9:15 PM 48.2 °F 42.8 °F 82% 29.92 in 10.0 mi ENE 10.4 mph 16.1 mph N/A   Overcast
9:35 PM 50.0 °F 42.8 °F 76% 29.91 in 10.0 mi NE 10.4 mph 16.1 mph N/A   Overcast
9:55 PM 50.0 °F 42.8 °F 76% 29.90 in 10.0 mi NE 10.4 mph 20.7 mph N/A   Overcast
10:15 PM 51.8 °F 42.8 °F 71% 29.90 in 10.0 mi NE 12.7 mph 25.3 mph N/A   Overcast
10:35 PM 51.8 °F 42.8 °F 71% 29.89 in 10.0 mi NE 16.1 mph 23.0 mph N/A   Overcast
11:35 PM 50.0 °F 44.6 °F 82% 29.87 in 10.0 mi NE 11.5 mph 21.9 mph N/A   Overcast
11:55 PM 50.0 °F 44.6 °F 82% 29.87 in 10.0 mi ENE 12.7 mph 18.4 mph N/A   Overcast